Time,TemperatureF,DewpointF,PressureIn,WindDirection,WindDirectionDegrees,WindSpeedMPH,WindSpeedGustMPH,Humidity,HourlyPrecipIn,Conditions,Clouds,dailyrainin,SolarRadiationWatts/m^2,SoftwareType,DateUTC
2013-02-14 00:02:00,64.0,59.0,-100.00,North,-999,-999.0,-999.0,85,0.00,,,0.00,0.000000,,2013-02-14 10:02:00,
2013-02-14 00:11:00,64.0,59.0,-100.00,North,-999,-999.0,-999.0,85,0.00,,,0.00,0.000000,,2013-02-14 10:11:00,
2013-02-14 00:21:00,64.0,59.0,-100.00,North,-999,-999.0,-999.0,85,0.00,,,0.00,0.000000,,2013-02-14 10:21:00,
2013-02-14 00:31:00,64.0,59.0,-100.00,North,-999,-999.0,-999.0,85,0.00,,,0.00,0.000000,,2013-02-14 10:31:00,
2013-02-14 01:01:00,62.0,56.0,-100.00,North,-999,-999.0,-999.0,82,0.00,,,0.00,0.000000,,2013-02-14 11:01:00,
2013-02-14 01:11:00,62.0,56.0,-100.00,North,-999,-999.0,-999.0,82,0.00,,,0.00,0.000000,,2013-02-14 11:11:00,
2013-02-14 01:21:00,62.0,56.0,-100.00,North,-999,-999.0,-999.0,82,0.00,,,0.00,0.000000,,2013-02-14 11:21:00,
2013-02-14 01:31:00,62.0,56.0,-100.00,North,-999,-999.0,-999.0,82,0.00,,,0.00,0.000000,,2013-02-14 11:31:00,
2013-02-14 01:52:00,62.0,56.0,-100.00,North,-999,-999.0,-999.0,81,0.00,,,0.00,0.000000,,2013-02-14 11:52:00,
2013-02-14 02:01:00,62.0,56.0,-100.00,North,-999,-999.0,-999.0,81,0.00,,,0.00,0.000000,,2013-02-14 12:01:00,
2013-02-14 02:11:00,62.0,56.0,-100.00,North,-999,-999.0,-999.0,81,0.00,,,0.00,0.000000,,2013-02-14 12:11:00,
2013-02-14 02:22:00,62.0,56.0,-100.00,North,-999,-999.0,-999.0,81,0.00,,,0.00,0.000000,,2013-02-14 12:22:00,
2013-02-14 02:31:00,62.0,56.0,-100.00,North,-999,-999.0,-999.0,81,0.00,,,0.00,0.000000,,2013-02-14 12:31:00,
2013-02-14 03:01:00,63.0,58.0,-100.00,North,-999,-999.0,-999.0,84,0.00,,,-99.99,0.000000,,2013-02-14 13:01:00,
2013-02-14 03:11:00,63.0,58.0,-100.00,North,-999,-999.0,-999.0,84,0.00,,,-99.99,0.000000,,2013-02-14 13:11:00,
2013-02-14 03:21:00,63.0,58.0,-100.00,North,-999,-999.0,-999.0,84,0.00,,,-99.99,0.000000,,2013-02-14 13:21:00,
2013-02-14 03:31:00,63.0,58.0,-100.00,North,-999,-999.0,-999.0,84,0.00,,,-99.99,0.000000,,2013-02-14 13:31:00,
2013-02-14 04:01:00,63.0,57.0,-100.00,North,-999,-999.0,-999.0,82,0.00,,,0.00,0.000000,,2013-02-14 14:01:00,
2013-02-14 04:11:00,63.0,57.0,-100.00,North,-999,-999.0,-999.0,82,0.00,,,0.00,0.000000,,2013-02-14 14:11:00,
2013-02-14 04:21:00,63.0,57.0,-100.00,North,-999,-999.0,-999.0,82,0.00,,,0.00,0.000000,,2013-02-14 14:21:00,
2013-02-14 04:31:00,63.0,57.0,-100.00,North,-999,-999.0,-999.0,82,0.00,,,0.00,0.000000,,2013-02-14 14:31:00,
2013-02-14 04:52:00,63.0,58.0,-100.00,North,-999,-999.0,-999.0,83,0.00,,,0.00,0.000000,,2013-02-14 14:52:00,
2013-02-14 05:01:00,63.0,58.0,-100.00,North,-999,-999.0,-999.0,83,0.00,,,0.00,0.000000,,2013-02-14 15:01:00,
2013-02-14 05:11:00,63.0,58.0,-100.00,North,-999,-999.0,-999.0,83,0.00,,,0.00,0.000000,,2013-02-14 15:11:00,
2013-02-14 05:21:00,63.0,58.0,-100.00,North,-999,-999.0,-999.0,83,0.00,,,0.00,0.000000,,2013-02-14 15:21:00,
2013-02-14 05:31:00,63.0,58.0,-100.00,North,-999,-999.0,-999.0,83,0.00,,,0.00,0.000000,,2013-02-14 15:31:00,
2013-02-14 06:01:00,63.0,59.0,-100.00,North,-999,-999.0,-999.0,87,0.00,,,0.00,0.000000,,2013-02-14 16:01:00,
2013-02-14 06:11:00,63.0,59.0,-100.00,North,-999,-999.0,-999.0,87,0.00,,,0.00,0.000000,,2013-02-14 16:11:00,
2013-02-14 06:21:00,63.0,59.0,-100.00,North,-999,-999.0,-999.0,87,0.00,,,0.00,0.000000,,2013-02-14 16:21:00,
2013-02-14 06:31:00,63.0,59.0,-100.00,North,-999,-999.0,-999.0,87,0.00,,,0.00,0.000000,,2013-02-14 16:31:00,
2013-02-14 06:52:00,63.0,61.0,-100.00,North,-999,-999.0,-999.0,92,0.00,,,-99.99,0.000000,,2013-02-14 16:52:00,
2013-02-14 07:01:00,63.0,61.0,-100.00,North,-999,-999.0,-999.0,92,0.00,,,-99.99,0.000000,,2013-02-14 17:01:00,
2013-02-14 07:11:00,63.0,61.0,-100.00,North,-999,-999.0,-999.0,92,0.00,,,-99.99,0.000000,,2013-02-14 17:11:00,
2013-02-14 07:21:00,63.0,61.0,-100.00,North,-999,-999.0,-999.0,92,0.00,,,-99.99,0.000000,,2013-02-14 17:21:00,
2013-02-14 07:31:00,63.0,61.0,-100.00,North,-999,-999.0,-999.0,92,0.00,,,-99.99,0.000000,,2013-02-14 17:31:00,
2013-02-14 08:01:00,61.0,59.0,-100.00,North,-999,-999.0,-999.0,93,0.00,,,0.00,0.000000,,2013-02-14 18:01:00,
2013-02-14 08:11:00,61.0,59.0,-100.00,North,-999,-999.0,-999.0,93,0.00,,,0.00,0.000000,,2013-02-14 18:11:00,
2013-02-14 08:22:00,61.0,59.0,-100.00,North,-999,-999.0,-999.0,93,0.00,,,0.00,0.000000,,2013-02-14 18:22:00,
2013-02-14 08:31:00,61.0,59.0,-100.00,North,-999,-999.0,-999.0,93,0.00,,,0.00,0.000000,,2013-02-14 18:31:00,
2013-02-14 09:02:00,65.0,60.0,-100.00,North,-999,-999.0,-999.0,84,0.00,,,0.00,66.000000,,2013-02-14 19:02:00,
2013-02-14 09:11:00,65.0,60.0,-100.00,North,-999,-999.0,-999.0,84,0.00,,,0.00,66.000000,,2013-02-14 19:11:00,
2013-02-14 09:21:00,65.0,60.0,-100.00,North,-999,-999.0,-999.0,84,0.00,,,0.00,66.000000,,2013-02-14 19:21:00,
2013-02-14 09:31:00,65.0,60.0,-100.00,North,-999,-999.0,-999.0,84,0.00,,,0.00,66.000000,,2013-02-14 19:31:00,
2013-02-14 10:01:00,66.0,57.0,-100.00,North,-999,-999.0,-999.0,74,0.00,,,0.00,321.000000,,2013-02-14 20:01:00,
2013-02-14 10:11:00,66.0,57.0,-100.00,North,-999,-999.0,-999.0,74,0.00,,,0.00,321.000000,,2013-02-14 20:11:00,
2013-02-14 10:21:00,66.0,57.0,-100.00,North,-999,-999.0,-999.0,74,0.00,,,0.00,321.000000,,2013-02-14 20:21:00,
2013-02-14 10:31:00,66.0,57.0,-100.00,North,-999,-999.0,-999.0,74,0.00,,,0.00,321.000000,,2013-02-14 20:31:00,
2013-02-14 11:02:00,67.0,59.0,-100.00,North,-999,-999.0,-999.0,75,0.00,,,0.00,367.000000,,2013-02-14 21:02:00,
2013-02-14 11:11:00,67.0,59.0,-100.00,North,-999,-999.0,-999.0,75,0.00,,,0.00,367.000000,,2013-02-14 21:11:00,
2013-02-14 11:21:00,67.0,59.0,-100.00,North,-999,-999.0,-999.0,75,0.00,,,0.00,367.000000,,2013-02-14 21:21:00,
2013-02-14 11:31:00,67.0,59.0,-100.00,North,-999,-999.0,-999.0,75,0.00,,,0.00,367.000000,,2013-02-14 21:31:00,
2013-02-14 12:02:00,68.0,59.0,-100.00,North,-999,-999.0,-999.0,73,0.00,,,0.00,581.000000,,2013-02-14 22:02:00,
2013-02-14 12:11:00,68.0,59.0,-100.00,North,-999,-999.0,-999.0,73,0.00,,,0.00,581.000000,,2013-02-14 22:11:00,
2013-02-14 12:21:00,68.0,59.0,-100.00,North,-999,-999.0,-999.0,73,0.00,,,0.00,581.000000,,2013-02-14 22:21:00,
2013-02-14 12:31:00,68.0,59.0,-100.00,North,-999,-999.0,-999.0,73,0.00,,,0.00,581.000000,,2013-02-14 22:31:00,
2013-02-14 13:01:00,71.0,60.0,-100.00,North,-999,-999.0,-999.0,69,0.00,,,0.00,861.000000,,2013-02-14 23:01:00,
2013-02-14 13:11:00,71.0,60.0,-100.00,North,-999,-999.0,-999.0,69,0.00,,,0.00,861.000000,,2013-02-14 23:11:00,
2013-02-14 13:21:00,71.0,60.0,-100.00,North,-999,-999.0,-999.0,69,0.00,,,0.00,861.000000,,2013-02-14 23:21:00,
2013-02-14 13:31:00,71.0,60.0,-100.00,North,-999,-999.0,-999.0,69,0.00,,,0.00,861.000000,,2013-02-14 23:31:00,
2013-02-14 14:01:00,69.0,59.0,-100.00,North,-999,-999.0,-999.0,71,0.00,,,0.00,747.000000,,2013-02-15 00:01:00,
2013-02-14 14:11:00,69.0,59.0,-100.00,North,-999,-999.0,-999.0,71,0.00,,,0.00,747.000000,,2013-02-15 00:11:00,
2013-02-14 14:21:00,69.0,59.0,-100.00,North,-999,-999.0,-999.0,71,0.00,,,0.00,747.000000,,2013-02-15 00:21:00,
2013-02-14 14:31:00,69.0,59.0,-100.00,North,-999,-999.0,-999.0,71,0.00,,,0.00,747.000000,,2013-02-15 00:31:00,
2013-02-14 15:01:00,72.0,62.0,-100.00,North,-999,-999.0,-999.0,71,0.00,,,0.00,753.000000,,2013-02-15 01:01:00,
2013-02-14 15:11:00,72.0,62.0,-100.00,North,-999,-999.0,-999.0,71,0.00,,,0.00,753.000000,,2013-02-15 01:11:00,
2013-02-14 15:21:00,72.0,62.0,-100.00,North,-999,-999.0,-999.0,71,0.00,,,0.00,753.000000,,2013-02-15 01:21:00,
2013-02-14 15:31:00,72.0,62.0,-100.00,North,-999,-999.0,-999.0,71,0.00,,,0.00,753.000000,,2013-02-15 01:31:00,
2013-02-14 16:01:00,72.0,61.0,-100.00,North,-999,-999.0,-999.0,69,0.00,,,0.00,779.000000,,2013-02-15 02:01:00,
2013-02-14 16:11:00,72.0,61.0,-100.00,North,-999,-999.0,-999.0,69,0.00,,,0.00,779.000000,,2013-02-15 02:11:00,
2013-02-14 16:21:00,72.0,61.0,-100.00,North,-999,-999.0,-999.0,69,0.00,,,0.00,779.000000,,2013-02-15 02:21:00,
2013-02-14 16:31:00,72.0,61.0,-100.00,North,-999,-999.0,-999.0,69,0.00,,,0.00,779.000000,,2013-02-15 02:31:00,
2013-02-14 17:02:00,73.0,62.0,-100.00,North,-999,-999.0,-999.0,69,0.00,,,0.00,762.000000,,2013-02-15 03:02:00,
2013-02-14 17:11:00,73.0,62.0,-100.00,North,-999,-999.0,-999.0,69,0.00,,,0.00,762.000000,,2013-02-15 03:11:00,
2013-02-14 17:21:00,73.0,62.0,-100.00,North,-999,-999.0,-999.0,69,0.00,,,0.00,762.000000,,2013-02-15 03:21:00,
2013-02-14 17:32:00,73.0,62.0,-100.00,North,-999,-999.0,-999.0,69,0.00,,,0.00,762.000000,,2013-02-15 03:32:00,
2013-02-14 18:01:00,70.0,60.0,-100.00,North,-999,-999.0,-999.0,71,0.00,,,0.00,520.000000,,2013-02-15 04:01:00,
2013-02-14 18:11:00,70.0,60.0,-100.00,North,-999,-999.0,-999.0,71,0.00,,,0.00,520.000000,,2013-02-15 04:11:00,
2013-02-14 18:21:00,70.0,60.0,-100.00,North,-999,-999.0,-999.0,71,0.00,,,0.00,520.000000,,2013-02-15 04:21:00,
2013-02-14 18:31:00,70.0,60.0,-100.00,North,-999,-999.0,-999.0,71,0.00,,,0.00,520.000000,,2013-02-15 04:31:00,
2013-02-14 19:02:00,66.0,59.0,-100.00,North,-999,-999.0,-999.0,77,0.00,,,0.00,162.000000,,2013-02-15 05:02:00,
2013-02-14 19:11:00,66.0,59.0,-100.00,North,-999,-999.0,-999.0,77,0.00,,,0.00,162.000000,,2013-02-15 05:11:00,
2013-02-14 19:22:00,66.0,59.0,-100.00,North,-999,-999.0,-999.0,77,0.00,,,0.00,162.000000,,2013-02-15 05:22:00,
2013-02-14 19:32:00,66.0,59.0,-100.00,North,-999,-999.0,-999.0,77,0.00,,,0.00,162.000000,,2013-02-15 05:32:00,
2013-02-14 20:02:00,64.0,58.0,-100.00,North,-999,-999.0,-999.0,82,0.00,,,0.00,5.000000,,2013-02-15 06:02:00,
2013-02-14 20:11:00,64.0,58.0,-100.00,North,-999,-999.0,-999.0,82,0.00,,,0.00,5.000000,,2013-02-15 06:11:00,
2013-02-14 20:21:00,64.0,58.0,-100.00,North,-999,-999.0,-999.0,82,0.00,,,0.00,5.000000,,2013-02-15 06:21:00,
2013-02-14 20:31:00,64.0,58.0,-100.00,North,-999,-999.0,-999.0,82,0.00,,,0.00,5.000000,,2013-02-15 06:31:00,
2013-02-14 21:01:00,65.0,61.0,-100.00,North,-999,-999.0,-999.0,87,0.00,,,0.00,0.000000,,2013-02-15 07:01:00,
2013-02-14 21:11:00,65.0,61.0,-100.00,North,-999,-999.0,-999.0,87,0.00,,,0.00,0.000000,,2013-02-15 07:11:00,
2013-02-14 21:21:00,65.0,61.0,-100.00,North,-999,-999.0,-999.0,87,0.00,,,0.00,0.000000,,2013-02-15 07:21:00,
2013-02-14 21:31:00,65.0,61.0,-100.00,North,-999,-999.0,-999.0,87,0.00,,,0.00,0.000000,,2013-02-15 07:31:00,
2013-02-14 22:01:00,64.0,60.0,-100.00,North,-999,-999.0,-999.0,87,0.00,,,0.00,0.000000,,2013-02-15 08:01:00,
2013-02-14 22:11:00,64.0,60.0,-100.00,North,-999,-999.0,-999.0,87,0.00,,,0.00,0.000000,,2013-02-15 08:11:00,
2013-02-14 22:21:00,64.0,60.0,-100.00,North,-999,-999.0,-999.0,87,0.00,,,0.00,0.000000,,2013-02-15 08:21:00,
2013-02-14 22:31:00,64.0,60.0,-100.00,North,-999,-999.0,-999.0,87,0.00,,,0.00,0.000000,,2013-02-15 08:31:00,
2013-02-14 23:01:00,64.0,61.0,-100.00,North,-999,-999.0,-999.0,89,0.00,,,0.00,0.000000,,2013-02-15 09:01:00,
2013-02-14 23:12:00,64.0,61.0,-100.00,North,-999,-999.0,-999.0,89,0.00,,,0.00,0.000000,,2013-02-15 09:12:00,
2013-02-14 23:21:00,64.0,61.0,-100.00,North,-999,-999.0,-999.0,89,0.00,,,0.00,0.000000,,2013-02-15 09:21:00,
2013-02-14 23:31:00,64.0,61.0,-100.00,North,-999,-999.0,-999.0,89,0.00,,,0.00,0.000000,,2013-02-15 09:31:00,